Voltar ao catálogo

STARLINK-5887

AtivoComunicaçõesSSO
NORAD 56349·PAYLOAD·🇺🇸 United States

Lançado Apr 27, 2023 de Vandenberg Space Force Base

Loading…

Próximas Passagens (próximas 24 horas)

TLE

AtualizadoSource: CelesTrak SupGP

Época: Sep 14, 2026, 20:49 UTC

1 56349C 23058AJ  26257.86784722  .00683040  00000+0  40523-1 0  2573
2 56349  97.2853 252.0493 0001763  89.3372 306.3651 15.11090218    10

Acompanhe STARLINK-5887 em tempo real com AllMySat

Download on the App Store